Tracking 29782 objects as of 13-Oct-2024
HD Live streaming from Space Station
objects crossing your sky now

SL-14 R/B

Track SL-14 R/B now!
10-day predictions


NORAD ID: 23005
Int'l Code: 1994-011G
Perigee: 1,417.2 km
Apogee: 1,482.6 km
Inclination: 82.6 °
Period: 114.7 minutes
Semi major axis: 7820 km
RCS: 5.492 m2 (large)
Launch date: February 12, 1994
Source: Commonwealth of Independent States (former USSR) (CIS)
Launch site: PLESETSK MISSILE AND SPACE COMPLEX (PKMTR)

Note: This is a ROCKET BODY
Your satellite tracking list
Your tracking list is empty




NASA's NSSDC Master Catalog

Two Line Element Set (TLE):
1 23005U 94011G   24286.69515346  .00000013  00000-0  12526-4 0  9990
2 23005  82.5726  88.6678 0041767  44.3537 327.3528 12.55213650404914
Source of the keplerian elements: AFSPC